Retour au catalogue

FENGYUN 1C DEB

ActifPO
NORAD 38514·DEBRIS·🇨🇳 China

Lancé May 10, 1999 depuis Taiyuan Satellite Launch Center

Loading…

Prochains Passages (prochaines 24 heures)

TLE

FraisSource: Space-Track

Époque: Sep 11, 2026, 06:12 UTC

1 38514U 99025ESZ 26254.25896524  .00002949  00000-0  10152-2 0  9991
2 38514  98.0499 264.2311 0246790 294.8542  62.7160 14.20979796918614

Suivez FENGYUN 1C DEB en temps réel avec AllMySat

Download on the App Store